Delavan, Wisconsin, United States (53115)
Lat: 42.63N, Lon: 88.64W
Wx Zone: WIZ070
Local Info
Past Weather Observations for Today

NOTE: This archive is for the closest National Weather Service station to Delavan. Information may differ from the station used for current weather conditions.

Click here for Long-term Archive

Time Weather Temperature Dewpoint Humidity Pressure Winds Precip Visibility
16:55
Clear
77°F / 25°C 64°F / 18°C 65% 29.74 in
(1007 mb)
SSW 8.1 mph
(SSW 13 kph)
- 10SM
16:35
Partly Cloudy
77°F / 25°C 64°F / 18°C 65% 29.74 in
(1007 mb)
SSW 13.8 mph
(SSW 22 kph)
- 10SM
16:15
Partly Cloudy
77°F / 25°C 64°F / 18°C 65% 29.74 in
(1007 mb)
SSW 9.2 mph
(SSW 15 kph)
- 10SM
15:55
Partly Cloudy
79°F / 26°C 64°F / 18°C 61% 29.74 in
(1007 mb)
SSW 10.4 mph
(SSW 17 kph)
- 10SM
15:35
Partly Cloudy
77°F / 25°C 64°F / 18°C 65% 29.74 in
(1007 mb)
SSW 11.5 mph
(SSW 19 kph)
- 10SM
15:15
Partly Cloudy
79°F / 26°C 64°F / 18°C 61% 29.74 in
(1007 mb)
SSW 11.5 mph
(SSW 19 kph)
- 10SM
14:55
Partly Cloudy
79°F / 26°C 64°F / 18°C 61% 29.74 in
(1007 mb)
SSW 13.8 mph
(SSW 22 kph)
- 10SM
14:35
Partly Cloudy
79°F / 26°C 64°F / 18°C 61% 29.74 in
(1007 mb)
SSW 11.5 mph
(SSW 19 kph)
- 10SM
14:15
Partly Cloudy
79°F / 26°C 64°F / 18°C 61% 29.74 in
(1007 mb)
SSW 10.4 mph
(SSW 17 kph)
- 10SM
13:55
Partly Cloudy
77°F / 25°C 63°F / 17°C 61% 29.74 in
(1007 mb)
SSW 13.8 mph
(SSW 22 kph)
- 10SM
13:35
Partly Cloudy
79°F / 26°C 64°F / 18°C 61% 29.74 in
(1007 mb)
SSW 13.8 mph
(SSW 22 kph)
- 10SM
13:15
Partly Cloudy
79°F / 26°C 64°F / 18°C 61% 29.74 in
(1007 mb)
SSW 15 mph
(SSW 24 kph)
- 10SM
12:55
Mostly Cloudy
77°F / 25°C 64°F / 18°C 65% 29.74 in
(1007 mb)
SW 17.3 mph
(SW 28 kph)
- 10SM
12:35
Partly Cloudy
79°F / 26°C 64°F / 18°C 61% 29.74 in
(1007 mb)
SSW 16.1 mph
(SSW 26 kph)
- 10SM
12:15
Clear
79°F / 26°C 64°F / 18°C 61% 29.74 in
(1007 mb)
SSW 12.7 mph
(SSW 20 kph)
- 10SM
11:55
Clear
77°F / 25°C 64°F / 18°C 65% 29.74 in
(1007 mb)
SSW 11.5 mph
(SSW 19 kph)
- 10SM
11:35
Partly Cloudy
77°F / 25°C 66°F / 19°C 69% 29.74 in
(1007 mb)
SSW 10.4 mph
(SSW 17 kph)
- 10SM
11:15
Partly Cloudy
77°F / 25°C 66°F / 19°C 69% 29.74 in
(1007 mb)
W 13.8 mph
(W 22 kph)
- 10SM
10:55
Partly Cloudy
73°F / 23°C 64°F / 18°C 74% 29.74 in
(1007 mb)
W 11.5 mph
(W 19 kph)
- 10SM
10:35
Mostly Cloudy
73°F / 23°C 68°F / 20°C 83% 29.77 in
(1008 mb)
SSW 16.1 mph
(SSW 26 kph)
- 10SM
10:15
Overcast
72°F / 22°C 68°F / 20°C 88% 29.77 in
(1008 mb)
SW 12.7 mph
(SW 20 kph)
- 10SM
09:55
Mostly Cloudy
70°F / 21°C 68°F / 20°C 94% 29.77 in
(1008 mb)
SW 9.2 mph
(SW 15 kph)
- 10SM
09:35
Mostly Cloudy
70°F / 21°C 68°F / 20°C 94% 29.74 in
(1007 mb)
SW 13.8 mph
(SW 22 kph)
- 10SM
09:15
Mostly Cloudy
Rain
70°F / 21°C 68°F / 20°C 94% 29.77 in
(1008 mb)
SW 11.5 mph
(SW 19 kph)
- 10SM
08:55
Partly Cloudy
Drizzle
70°F / 21°C 68°F / 20°C 94% 29.74 in
(1007 mb)
SSE 12.7 mph
(SSE 20 kph)
- 10SM
08:35
Partly Cloudy
70°F / 21°C 68°F / 20°C 94% 29.74 in
(1007 mb)
SW 10.4 mph
(SW 17 kph)
- 10SM
08:15
Mostly Cloudy
Light Rain
72°F / 22°C 68°F / 20°C 88% 29.74 in
(1007 mb)
SSE 10.4 mph
(SSE 17 kph)
- 10SM
07:55
Overcast
72°F / 22°C 68°F / 20°C 88% 29.74 in
(1007 mb)
SW 15 mph
(SW 24 kph)
- 10SM
07:35
Overcast
72°F / 22°C 70°F / 21°C 94% 29.71 in
(1006 mb)
SSE 10.4 mph
(SSE 17 kph)
- 10SM
07:15
Overcast
72°F / 22°C 70°F / 21°C 94% 29.71 in
(1006 mb)
S 8.1 mph
(S 13 kph)
- 7SM
06:55
Overcast
72°F / 22°C 70°F / 21°C 94% 29.71 in
(1006 mb)
S 8.1 mph
(S 13 kph)
- 7SM
06:35
Partly Cloudy
72°F / 22°C 70°F / 21°C 94% 29.71 in
(1006 mb)
S 5.8 mph
(S 9 kph)
- 7SM
06:15
Clear
Fog And Mist
70°F / 21°C 68°F / 20°C 94% 29.68 in
(1005 mb)
SSE 11.5 mph
(SSE 19 kph)
- 5SM
05:55
Clear
Fog And Mist
70°F / 21°C 68°F / 20°C 94% 29.71 in
(1006 mb)
SE 8.1 mph
(SE 13 kph)
- 5SM
05:35
Mostly Cloudy
Fog And Mist
70°F / 21°C 68°F / 20°C 94% 29.71 in
(1006 mb)
SE 8.1 mph
(SE 13 kph)
- 5SM
05:15
Overcast
70°F / 21°C 68°F / 20°C 94% 29.74 in
(1007 mb)
S 5.8 mph
(S 9 kph)
- 7SM
04:55
Overcast
70°F / 21°C 68°F / 20°C 94% 29.77 in
(1008 mb)
S 4.6 mph
(S 7 kph)
- 7SM
04:35
Overcast
70°F / 21°C 68°F / 20°C 94% 29.77 in
(1008 mb)
S 4.6 mph
(S 7 kph)
- 7SM
04:15
Mostly Cloudy
Fog And Mist
68°F / 20°C 68°F / 20°C 100% 29.77 in
(1008 mb)
SW 5.8 mph
(SW 9 kph)
- 5SM
03:55
Clear
68°F / 20°C 68°F / 20°C 100% 29.77 in
(1008 mb)
SSE 3.5 mph
(SSE 6 kph)
- 7SM
03:35
Clear
68°F / 20°C 68°F / 20°C 100% 29.77 in
(1008 mb)
SW 4.6 mph
(SW 7 kph)
- 7SM
03:15
Clear
68°F / 20°C 68°F / 20°C 100% 29.77 in
(1008 mb)
S 4.6 mph
(S 7 kph)
- 7SM
02:55
Clear
70°F / 21°C 68°F / 20°C 94% 29.8 in
(1009 mb)
S 5.8 mph
(S 9 kph)
- 7SM
02:35
Clear
70°F / 21°C 68°F / 20°C 94% 29.8 in
(1009 mb)
S 5.8 mph
(S 9 kph)
- 7SM
02:15
Clear
70°F / 21°C 68°F / 20°C 94% 29.8 in
(1009 mb)
S 5.8 mph
(S 9 kph)
- 7SM
01:55
Clear
70°F / 21°C 68°F / 20°C 94% 29.8 in
(1009 mb)
S 4.6 mph
(S 7 kph)
- 7SM
01:35
Clear
70°F / 21°C 68°F / 20°C 94% 29.83 in
(1010 mb)
S 4.6 mph
(S 7 kph)
- 7SM
01:15
Clear
Fog And Mist
68°F / 20°C 68°F / 20°C 100% 29.83 in
(1010 mb)
S 4.6 mph
(S 7 kph)
- 5SM
00:55
Clear
Fog And Mist
68°F / 20°C 66°F / 19°C 94% 29.83 in
(1010 mb)
S 3.5 mph
(S 6 kph)
- 5SM
00:35
Clear
68°F / 20°C 66°F / 19°C 94% 29.83 in
(1010 mb)
Calm - 7SM
00:15
Clear
68°F / 20°C 66°F / 19°C 94% 29.83 in
(1010 mb)
S 3.5 mph
(S 6 kph)
- 7SM
Time Weather Temperature Dewpoint Humidity Pressure Winds Precip Visibility


Weather for websites

WeatherForYou.com, LLC is not responsible for any damages or problems caused by this service. Current weather conditions are obtained from the closest station including government and personal stations which may have varying degrees of accuracy. Weather forecasts are derived from the NOAA NDFD. Like all things, this site belongs to Jesus Christ... He just trusts me to maintain it. If you have any questions or comments email webmaster@weatherforyou.com

Copyright © 2014, WeatherForYou.com LLC. All rights reserved.